Weather History for Baltimore, MD

Change the Weather History Date:

Tuesday, August 12, 2014

  Actual Average Record
Temperature  
Mean Temperature 72 °F 76 °F  
Max Temperature 76 °F 86 °F 99 °F (1900)
Min Temperature 67 °F 66 °F 54 °F (1962)
Degree Days  
Heating Degree Days 0 0  
Month to date heating degree days 0 0  
Since 1 June heating degree days 2 15  
Since 1 July heating degree days 0 0  
Cooling Degree Days 7 11  
Month to date cooling degree days 97 134  
Year to date cooling degree days 773 828  
Since 1 June cooling degree days 688 744  
Growing Degree Days 20 (Base 50)    
Moisture  
Dew Point 70 °F    
Average Humidity 94    
Maximum Humidity 100    
Minimum Humidity 87    
Precipitation  
Precipitation 6.30 in 0.10 in 6.30 in (2014)
Month to date precipitation 7.13 1.34  
Year to date precipitation 37.50 25.90  
Snow  
Snow 0.00 in 0.00 in - ()
Month to date snowfall 0.0 0.0  
Since 1 July snowfall 0.0 0.0  
Snow Depth 0.00 in    
Sea Level Pressure  
Sea Level Pressure 29.88 in    
Wind  
Wind Speed 5 mph (East)    
Max Wind Speed 23 mph    
Max Gust Speed 29 mph    
Visibility 6 miles    
Events Fog , Rain , Thunderstorm    
T = Trace of Precipitation, MM = Missing Value Source: NWS Daily Summary

Daily Weather History Graph

Daily Weather History Graph

Search for Another Location

Airport:

Trip Planner

Search our weather history database for the weather conditions in past years. The results will help you decide how hot, cold, wet, or windy it might be!

Date:

Astronomy

Aug. 12, 2014 Rise Set
Actual Time 6:17 AM EDT 8:05 PM EDT
Civil Twilight 5:48 AM EDT 8:34 PM EDT
Nautical Twilight 5:13 AM EDT 9:09 PM EDT
Astronomical Twilight 4:35 AM EDT 9:46 PM EDT
Moon 9:13 PM EDT (8/12) 8:30 AM EDT (8/12)
Length of Visible Light 14h 46m
Length of Day
13h 48m
Waning Gibbous, 95% of the Moon is Illuminated
Aug 12
Waning Gibbous
Aug 17
Last Quarter
Aug 25
New
Sep 2
First Quarter
Sep 8
Full

Hourly Weather History & Observations

Time (EDT) Temp. Dew Point Humidity Pressure Visibility Wind Dir Wind Speed Gust Speed Precip Events Conditions
12:54 AM 71.1 °F 66.0 °F 84% 30.01 in 10.0 mi East 5.8 mph - 0.00 in Rain Light Rain
1:54 AM 71.1 °F 66.9 °F 87% 30.00 in 10.0 mi Calm Calm - 0.00 in Rain Light Rain
2:54 AM 71.1 °F 68.0 °F 90% 29.98 in 10.0 mi East 4.6 mph - 0.00 in   Overcast
3:54 AM 71.1 °F 69.1 °F 93% 29.97 in 10.0 mi SE 3.5 mph - 0.00 in   Overcast
4:54 AM 71.1 °F 70.0 °F 96% 29.96 in 9.0 mi Calm Calm - 0.00 in Rain Light Rain
5:54 AM 72.0 °F 70.0 °F 93% 29.95 in 10.0 mi ESE 3.5 mph - 0.00 in   Overcast
6:54 AM 72.0 °F 70.0 °F 93% 29.95 in 10.0 mi ESE 3.5 mph - 0.00 in Rain Light Rain
7:22 AM 71.6 °F 69.8 °F 94% 29.96 in 10.0 mi South 3.5 mph - 0.01 in Rain Light Rain
7:54 AM 71.1 °F 63.0 °F 75% 29.94 in 10.0 mi Calm Calm - 0.01 in   Overcast
8:54 AM 72.0 °F 69.1 °F 91% 29.93 in 10.0 mi ESE 4.6 mph - 0.00 in Rain Light Rain
9:03 AM 71.6 °F 69.8 °F 94% 29.93 in 5.0 mi ESE 5.8 mph - 0.00 in Rain Light Rain
9:54 AM 73.0 °F 71.1 °F 93% 29.92 in 7.0 mi East 8.1 mph - 0.04 in Rain Light Rain
10:08 AM 73.4 °F 71.6 °F 94% 29.93 in 8.0 mi East 5.8 mph - 0.00 in Rain Light Rain
10:19 AM 73.4 °F 71.6 °F 94% 29.94 in 2.0 mi South 3.5 mph - 0.02 in Rain Heavy Rain
10:21 AM 71.6 °F 71.6 °F 100% 29.93 in 1.2 mi Calm Calm - N/A Rain Heavy Rain
10:24 AM 71.6 °F 71.6 °F 100% 29.94 in 0.8 mi Variable 3.5 mph - 0.13 in Rain Heavy Rain
10:36 AM 71.6 °F 69.8 °F 94% 29.94 in 1.0 mi South 3.5 mph - 0.17 in Rain Heavy Rain
10:54 AM 66.9 °F 64.9 °F 93% 29.94 in 1.2 mi WNW 5.8 mph - 0.45 in Rain Heavy Rain
11:19 AM 68.0 °F 66.2 °F 94% 29.93 in 2.5 mi North 9.2 mph - 0.11 in Rain Rain
11:31 AM 69.8 °F 68.0 °F 94% 29.92 in 3.0 mi NE 9.2 mph - 0.14 in Rain Rain
11:41 AM 69.8 °F 68.0 °F 94% 29.91 in 2.5 mi ENE 11.5 mph - 0.18 in Rain Heavy Rain
11:54 AM 70.0 °F 69.1 °F 97% 29.90 in 2.5 mi ENE 11.5 mph - 0.29 in Rain Heavy Rain
12:04 PM 69.8 °F 68.0 °F 94% 29.90 in 2.5 mi ENE 11.5 mph - 0.06 in Rain Heavy Rain
1:32 PM 71.6 °F 69.8 °F 94% 29.89 in 0.2 mi NNE 13.8 mph - 2.61 in Fog , Rain , Thunderstorm Heavy Thunderstorms and Rain
1:38 PM 71.6 °F 69.8 °F 94% 29.89 in 1.5 mi NNE 11.5 mph - 2.63 in Rain , Thunderstorm Thunderstorms and Rain
1:42 PM 71.6 °F 69.8 °F 94% 29.89 in 2.5 mi NNE 8.1 mph - 2.65 in Rain Rain
1:54 PM 72.0 °F 70.0 °F 93% 29.88 in 2.0 mi ENE 13.8 mph 19.6 mph 2.70 in Rain Heavy Rain
1:56 PM 71.6 °F 69.8 °F 94% 29.89 in 1.8 mi ENE 15.0 mph 19.6 mph 0.01 in Rain Heavy Rain
2:27 PM 71.6 °F 69.8 °F 94% 29.87 in 1.0 mi NE 9.2 mph - 0.59 in Rain , Thunderstorm Heavy Thunderstorms and Rain
2:46 PM 71.6 °F 69.8 °F 94% 29.86 in 2.0 mi NE 12.7 mph - 0.76 in Rain , Thunderstorm Thunderstorms and Rain
2:54 PM 72.0 °F 69.1 °F 91% 29.85 in 2.0 mi ENE 12.7 mph 21.9 mph 0.78 in Rain Rain
3:46 PM 71.6 °F 69.8 °F 94% 29.83 in 0.8 mi East 5.8 mph - 0.22 in Rain Heavy Rain
3:54 PM 73.0 °F 70.0 °F 90% 29.83 in 1.2 mi ENE 8.1 mph - 0.38 in Rain Rain
4:47 PM 75.2 °F 71.6 °F 89% 29.81 in 5.0 mi SE 4.6 mph - 0.13 in Rain Light Rain
4:54 PM 73.9 °F 71.1 °F 91% 29.81 in 6.0 mi SE 9.2 mph - 0.13 in Rain Light Rain
5:54 PM 75.9 °F 71.1 °F 85% 29.79 in 6.0 mi ESE 16.1 mph 23.0 mph 0.00 in Rain Light Rain
6:29 PM 73.4 °F 71.6 °F 94% 29.79 in 2.5 mi ESE 11.5 mph 18.4 mph 0.00 in Rain Light Rain
6:54 PM 73.9 °F 73.0 °F 97% 29.79 in 8.0 mi ESE 4.6 mph - 0.03 in   Mostly Cloudy
7:54 PM 73.9 °F 72.0 °F 93% 29.78 in 10.0 mi ENE 9.2 mph - N/A   Mostly Cloudy
8:19 PM 73.4 °F 71.6 °F 94% 29.78 in 9.0 mi East 5.8 mph - N/A   Mostly Cloudy
8:54 PM 73.0 °F 72.0 °F 96% 29.77 in 10.0 mi East 5.8 mph - N/A   Mostly Cloudy
9:03 PM 73.4 °F 71.6 °F 94% 29.77 in 10.0 mi ESE 4.6 mph - N/A   Mostly Cloudy
9:21 PM 73.4 °F 71.6 °F 94% 29.78 in 10.0 mi Calm Calm - 0.00 in   Light Drizzle
9:54 PM 73.9 °F 72.0 °F 93% 29.80 in 10.0 mi Calm Calm - 0.00 in   Overcast
10:54 PM 73.0 °F 71.1 °F 93% 29.77 in 10.0 mi Calm Calm - N/A   Mostly Cloudy
11:12 PM 73.4 °F 71.6 °F 94% 29.77 in 10.0 mi Calm Calm - N/A   Mostly Cloudy
11:54 PM 73.0 °F 72.0 °F 96% 29.77 in 5.0 mi Calm Calm - N/A   Overcast